Location: ????????
(55.0808°N, 38.5463°E)
Time: 04:35:32
(UTC+00:00)

Cosmos 1340 Rocket - Pass Details

Date: 14 April 2024
Orbit: 507 x 543 km, 81.2° (Epoch: 23 May)

Event Time Altitude Azimuth Distance (km) Brightness Sun altitude
Exits shadow 00:35:28 - 165° (SSE) 2,292 5.7 -14.3°
Reaches altitude 10° 00:36:53 10° 158° (SSE) 1,743 5.2 -14.1°
Maximum altitude 00:40:20 33° 94° (E) 901 4.4 -13.8°
Drops below altitude 10° 00:43:50 10° 30° (NNE) 1,777 6.6 -13.4°
Sets 00:46:09 0° 21° (NNE) 2,678 7.4 -13.1°
